Main page
METAR-TAF:

Airports :

Çorlu, Turkey

Tekirdağ Çorlu Airport

latitude: 41-08N, longitude: 027-55E, elevation: 173 m

Current weather observation

The report was made 20 minutes ago, at 18:50 UTC
Wind 6 kt from the East/Northeast
Temperature 23°C
Humidity 47%
Pressure 1015 hPa
Visibility 10 km or more
no clouds below 1500 m and no cumulonimbus

METAR: LTBU 231850Z 06006KT CAVOK 23/11 Q1015 RMK RWY23 07004KT

Time: 22:10 (19:10 UTC)

Forecast

The report was made 2 hours and 30 minutes ago, at 16:40 UTC
Forecast valid from 23 at 18 UTC to 24 at 18 UTC
Wind 9 kt from the North/Northeast
Visibility 10 km or more
no clouds below 1500 m and no cumulonimbus

TAF: LTBU 231640Z 2318/2418 03009KT CAVOK

METAR-TAF

Weather observations and forecasts of more than 4000 airports (METAR and TAF reports).

The available stations are represented by yellow and red dots on the map.

Hover mouse over dot to see the name of the station.

Then click to see weather observations and forecasts.

To change the map : click on the green buttons with a black cross to zoom in, on the green button with a dash to zoom out, or on the green arrows for adjacent maps.


METAR-TAF: